SKYSAT-C3

Last updated on Fri Jul 10 2026 00:02:50 GMT+0000 (Coordinated Universal Time)

1 41774U 16058E 26189.98654813 .00017017 00000+0 26927-3 0 9997 2 41774 96.9004 220.0058 0002105 133.8993 226.2436 15.53501070549497
UTC large
Height (km)
Speed (km/s)
/
Latitude / Longitude
Inclination (degrees)
Orbital Period (minutes)
Azimuth
Elevation
Range (km)
Doppler Factor

Next 0 passes for location: London (51.5072 / 0.1276)

No passes found over London.